Location: Shannon
(40.5500°S, 175.4167°E)
Time: 20:38:47
(UTC+00:00)

Cosmos 2154 Rocket - Pass Details

Date: 17 November 2025
Orbit: 966 x 995 km, 82.9° (Epoch: 14 December)

Event Time Altitude Azimuth Distance (km) Brightness Sun altitude
Exits shadow 12:27:08 60° 85° (E) 1,128 4.2 -30.1°
Maximum altitude 12:27:11 60° 88° (E) 1,128 4.2 -30.1°
Drops below altitude 10° 12:33:24 10° 165° (SSE) 2,761 7.3 -29.9°
Sets 12:35:57 0° 168° (SSE) 3,711 8.2 -29.9°
